Flag for Switzerland Weather past 2 weeks in Montreux, Vaud, Switzerland

Now
74 °F

Passing clouds.


Feels Like: 76 °F
Forecast: 63 / 87 °F
Wind: 1 mph from Southwest

Location: Aigle

Current Time: Jul 6, 2015 at 9:26:24 AM

Latest Report: Jul 6, 2015 at 8:00 AM


Visibility: 11 mi

Pressure: 30.11 "Hg

Humidity: 74%

Dew point: 65 °F

Location of MontreuxLocation

Historic Weather in Montreux — Graph

°F

Montreux temperature yesterday

Maximum temperature yesterday: 97 °F (at 7:00 PM)
Minimum temperature yesterday: 66 °F (at 6:00 AM)
Average temperature yesterday: 80 °F

Past Weeks' High & Low Weather Summary

 TemperatureHumidityPressure
High97 °F (Jul 5, 7:00 PM)97% (Jun 23, 7:00 AM)30.23 "Hg (Jun 23, 7:00 AM)
Low47 °F (Jun 24, 7:00 AM)16% (Jul 5, 7:00 PM)29.77 "Hg (Jun 22, 10:00 PM)
Average70 °F65%30.08 "Hg
* Reported Jun 21 8:00 AM — Jul 6 8:00 AM, Montreux, Weather by CustomWeather, © 2015

Note: Actual official high and low records may vary slightly from our data, if they occured in-between our weather recording intervals... More about our weather records

Advertising

Montreux weather history for previous 24 hours

 ConditionsComfort  
Time TempWeatherWind HumidityBarometerVisibility
8:00 AM
Mon, Jul 6
74 °FPassing clouds.1 mph74%30.11 "Hg11 mi
7:00 AM67 °FMild.No wind88%30.13 "HgN/A
6:00 AM65 °FMild.3 mph89%30.13 "HgN/A
5:00 AM69 °FPassing clouds.1 mph80%30.11 "Hg9 mi
4:00 AM66 °FMild.1 mph87%30.11 "HgN/A
3:00 AM72 °FMild.No wind72%30.09 "HgN/A
2:00 AM72 °FMild.2 mph75%30.08 "HgN/A
1:00 AM74 °FMild.1 mph66%30.06 "HgN/A
12:00 AM76 °FMild.3 mph61%30.04 "HgN/A
11:00 PM
Sun, Jul 5
75 °FMild.1 mph68%30.03 "HgN/A
10:00 PM77 °FMild.2 mph66%29.99 "HgN/A
9:00 PM80 °FWarm.2 mph55%29.95 "HgN/A
8:00 PM90 °FScattered clouds.3 mph39%29.91 "Hg11 mi
7:00 PM97 °FExtremely hot.7 mph16%29.89 "HgN/A
6:00 PM89 °FHot.10 mph38%29.90 "HgN/A
5:00 PM89 °FPassing clouds.13 mph43%29.90 "Hg12 mi
4:00 PM92 °FHot.9 mph37%29.90 "HgN/A
3:00 PM92 °FHot.1 mph45%29.91 "HgN/A
2:00 PM90 °FScattered clouds.7 mph37%29.96 "Hg12 mi
1:00 PM85 °FWarm.12 mph50%30.02 "HgN/A
12:00 PM85 °FWarm.12 mph52%30.00 "HgN/A
11:00 AMN/ASunny.N/AN/AN/A16 mi
10:00 AM84 °FWarm.3 mph44%30.01 "HgN/A
9:00 AM82 °FWarm.8 mph45%30.03 "HgN/A
Weather by CustomWeather, © 2015

See weather overviewHow to use our weather pages